This is the latest recevied weather packets stored in our database for station/object KC8QDR-1. If no packets are shown the sender has not sent any weather packets the latest 10 day(s).
| Time | Temp. | Humidity | Pressure | Rain* | Wind** | Luminosity | Snow |
|---|---|---|---|---|---|---|---|
| 1777677525 | 6.11° C | 89% | 1020.1 hPa | 0 mm | 0.45 m/s, 2° | - | - |
| 1777676926 | 6.11° C | 89% | 1020.1 hPa | 0 mm | 0.45 m/s, 352° | - | - |
| 1777675725 | 6.11° C | 91% | 1020.1 hPa | 0 mm | 1.79 m/s, 7° | - | - |
| 1777675125 | 6.11° C | 89% | 1020.1 hPa | 0 mm | 1.79 m/s, 359° | - | - |
| 1777674525 | 6.11° C | 89% | 1020.1 hPa | 0 mm | 1.34 m/s, 16° | - | - |
| 1777673925 | 5.56° C | 90% | 1020.1 hPa | 0 mm | 3.13 m/s, 9° | - | - |
| 1777673324 | 5.56° C | 91% | 1020.5 hPa | 0 mm | 0 m/s | - | - |
| 1777672726 | 5.56° C | 93% | 1020.4 hPa | 0 mm | 0 m/s | - | - |
| 1777672125 | 5.56° C | 92% | 1020.4 hPa | 0 mm | 0 m/s | - | - |
| 1777671525 | 5.56° C | 95% | 1020.3 hPa | 0 mm | 0 m/s | - | - |
| 1777670925 | 5.56° C | 95% | 1020.1 hPa | 0 mm | 0 m/s | - | - |
| 1777670326 | 5.56° C | 95% | 1019.6 hPa | 0 mm | 0 m/s | - | - |
| 1777669725 | 5.56° C | 95% | 1019.5 hPa | 0 mm | 0 m/s | - | - |
| 1777669125 | 5.56° C | 95% | 1019.1 hPa | 0 mm | 0 m/s | - | - |
| 1777668524 | 5.56° C | 94% | 1018.8 hPa | 0 mm | 0 m/s | - | - |
| 1777667925 | 5° C | 91% | 1018.9 hPa | 0 mm | 0 m/s | - | - |
| 1777667326 | 5.56° C | 93% | 1018.7 hPa | 0 mm | 0 m/s | - | - |
| 1777666725 | 5.56° C | 94% | 1018.7 hPa | 0.25 mm | 0 m/s | - | - |
| 1777666125 | 5.56° C | 93% | 1018.6 hPa | 0.76 mm | 0 m/s | - | - |
| 1777665525 | 6.11° C | 95% | 1018.5 hPa | 1.02 mm | 0 m/s | - | - |
| 1777664925 | 6.11° C | 94% | 1018.6 hPa | 1.27 mm | 0 m/s | - | - |
| 1777664325 | 6.11° C | 94% | 1018.5 hPa | 1.78 mm | 0 m/s | - | - |
| 1777663725 | 6.11° C | 95% | 1018.6 hPa | 2.03 mm | 0 m/s | - | - |
| 1777663125 | 6.11° C | 95% | 1018.5 hPa | 1.78 mm | 0 m/s | - | - |
| 1777662526 | 7.22° C | 95% | 1018.7 hPa | 2.03 mm | 0 m/s | - | - |
* Rain latest hour (hover to see other rain measurements)
** Current wind speed in m/s (hover to see current wind gust speed)